Weather History for Watsonville, CA

Change the Weather History Date:

Sunday, November 3, 2013

  Actual Average Record
Temperature  
Mean Temperature 54 °F 58 °F  
Max Temperature 68 °F 70 °F 88 °F (2010)
Min Temperature 40 °F 46 °F 40 °F (2013)
Degree Days  
Heating Degree Days 11    
Month to date heating degree days 25  
Since 1 July heating degree days 399  
Cooling Degree Days 0    
Month to date cooling degree days 0  
Year to date cooling degree days 128  
Growing Degree Days 4 (Base 50)    
Moisture  
Dew Point 39 °F    
Average Humidity 59    
Maximum Humidity 96    
Minimum Humidity 22    
Precipitation  
Precipitation 0.00 in - 1.42 in (1968)
Month to date precipitation 0.00  
Year to date precipitation 2.76  
Since 1 July precipitation 0.37  
Sea Level Pressure  
Sea Level Pressure 29.97 in    
Wind  
Wind Speed 3 mph (West)    
Max Wind Speed 12 mph    
Max Gust Speed 20 mph    
Visibility 8 miles    
Events Fog    
T = Trace of Precipitation, MM = Missing Value Source: NWS Daily Summary

Daily Weather History Graph

Daily Weather History Graph

Search for Another Location

Airport:

Trip Planner

Search our weather history database for the weather conditions in past years. The results will help you decide how hot, cold, wet, or windy it might be!

Date:

Astronomy

Nov. 03, 2013 Rise Set
Actual Time 6:33 AM PST 5:07 PM PST
Civil Twilight 6:06 AM PST 5:34 PM PST
Nautical Twilight 5:35 AM PST 6:05 PM PST
Astronomical Twilight 5:05 AM PST 6:35 PM PST
Moon 6:42 AM PST (11/3) 5:27 PM PST (11/3)
Length of Visible Light 11h 27m
Length of Day
10h 33m
New Moon, 0% of the Moon is Illuminated
Nov 3
New Moon
Nov 9
First Quarter
Nov 17
Full
Nov 25
Last Quarter
Dec 2
New

Hourly Weather History & Observations

Time (PST) Temp. Windchill Dew Point Humidity Pressure Visibility Wind Dir Wind Speed Gust Speed Precip Events Conditions
12:18 AM 51.8 °F - 48.2 °F 88% 29.97 in 10.0 mi Calm Calm - N/A   Overcast
12:53 AM 50.0 °F - 46.9 °F 89% 29.97 in 10.0 mi Calm Calm - N/A   Mostly Cloudy
1:08 AM 48.2 °F - 46.4 °F 93% 29.97 in 10.0 mi Calm Calm - N/A   Scattered Clouds
1:53 AM 48.0 °F - 45.0 °F 89% 29.97 in 10.0 mi North 3.5 mph - N/A   Clear
1:53 AM 46.9 °F - 44.1 °F 90% 29.97 in 10.0 mi NW 4.6 mph - N/A   Clear
2:53 AM 46.0 °F 43.1 °F 44.1 °F 93% 29.97 in 10.0 mi WNW 5.8 mph - N/A   Clear
3:53 AM 46.0 °F 43.9 °F 44.1 °F 93% 29.97 in 10.0 mi NW 4.6 mph - N/A   Clear
4:53 AM 45.0 °F - 43.0 °F 93% 29.98 in 10.0 mi Calm Calm - N/A   Clear
5:53 AM 42.1 °F - 41.0 °F 96% 29.99 in 6.0 mi Calm Calm - N/A   Partly Cloudy
6:05 AM 41.0 °F - 39.2 °F 93% 29.99 in 5.0 mi Calm Calm - N/A   Mostly Cloudy
6:21 AM 42.8 °F - 39.2 °F 87% 30.00 in 2.0 mi Calm Calm - N/A   Mostly Cloudy
6:30 AM 41.0 °F 37.1 °F 39.2 °F 93% 30.00 in 1.2 mi NNW 5.8 mph - N/A   Mostly Cloudy
6:38 AM 42.8 °F - 39.2 °F 87% 30.00 in 0.8 mi Calm Calm - N/A   Mist
6:53 AM 42.1 °F 40.2 °F 41.0 °F 96% 30.01 in 0.2 mi NW 3.5 mph - N/A Fog Fog
7:08 AM 42.8 °F 40.1 °F 41.0 °F 93% 30.01 in 1.0 mi WNW 4.6 mph - N/A   Mist
7:12 AM 42.8 °F 41.1 °F 41.0 °F 93% 30.01 in 2.0 mi North 3.5 mph - N/A   Mostly Cloudy
7:17 AM 42.8 °F - 42.8 °F 100% 30.01 in 3.0 mi Calm Calm - N/A   Scattered Clouds
7:53 AM 46.0 °F - 45.0 °F 96% 30.03 in 10.0 mi Calm Calm - 0.01 in   Clear
8:53 AM 54.0 °F - 44.1 °F 69% 30.03 in 10.0 mi East 3.5 mph - N/A   Clear
9:53 AM 60.1 °F - 44.1 °F 55% 30.03 in 10.0 mi SSW 5.8 mph - N/A   Clear
10:53 AM 62.1 °F - 39.9 °F 44% 30.02 in 10.0 mi SSW 5.8 mph - N/A   Clear
11:53 AM 66.0 °F - 35.1 °F 32% 30.00 in 10.0 mi SE 6.9 mph - N/A   Clear
12:53 PM 66.9 °F - 32.0 °F 27% 29.96 in 10.0 mi SSW 9.2 mph - N/A   Clear
1:53 PM 66.0 °F - 32.0 °F 28% 29.94 in 10.0 mi SSW 6.9 mph - N/A   Clear
2:53 PM 64.9 °F - 34.0 °F 32% 29.93 in 10.0 mi Calm Calm - N/A   Clear
3:53 PM 64.9 °F - 25.0 °F 22% 29.92 in 10.0 mi Variable 3.5 mph - N/A   Clear
4:53 PM 62.1 °F - 27.0 °F 26% 29.92 in 10.0 mi Calm Calm - N/A   Clear
5:53 PM 55.9 °F - 30.0 °F 37% 29.93 in 10.0 mi Calm Calm - N/A   Clear
6:53 PM 59.0 °F - 28.0 °F 31% 29.92 in 10.0 mi Calm Calm - N/A   Clear
7:53 PM 53.1 °F - 30.0 °F 41% 29.90 in 10.0 mi Calm Calm - N/A   Clear
8:53 PM 51.1 °F - 39.0 °F 63% 29.92 in 10.0 mi South 3.5 mph - N/A   Clear
9:53 PM 50.0 °F - 42.1 °F 74% 29.94 in 10.0 mi Calm Calm - N/A   Clear
10:53 PM 48.9 °F - 33.1 °F 54% 29.94 in 10.0 mi WNW 4.6 mph - N/A   Clear